Location: Lane
(33.5226°N, 79.8788°W)
Time: 05:04:38
(UTC+00:00)

Vanguard 2 - Pass Details

Date: 03 October 2022
Orbit: 553 x 2933 km, 32.9° (Epoch: 26 November)

Event Time Altitude Azimuth Distance (km) Brightness Sun altitude
Rises 01:12:04 0° 284° (WNW) 6,667 13.6 -27.6°
Reaches altitude 10° 01:17:01 10° 277° (W) 5,743 12.9 -28.6°
Maximum altitude 01:31:54 35° 221° (SW) 3,880 11.1 -31.6°
Enters shadow 01:42:01 17° 170° (S) 4,452 11.1 -33.6°
Drops below altitude 10° 01:44:31 10° 162° (SSE) 4,832 - -34.1°
Sets 01:48:18 0° 153° (SSE) 5,529 - -34.8°
